User: anonymous   Login
Location: Unspecified
(0.0000°N, 0.0000°E)
Time: 03:38:02
(UTC+00:00)
Language:

PANSAT - Orbit

View from above orbital plane
View from above orbital plane
View from above satellite
View from above satellite

Ground track
Ground track

The orbit data is extracted from the following two-line orbital elements,

1 25520U 98064B   24170.93489834  .00010349  00000-0  21745-3 0  9992
2 25520  28.4379 116.0908 0003023  63.4365 296.6543 15.43502285426607
Epoch (UTC): 18 June 2024 22:26:15
Eccentricity: 0.0003023
inclination: 28.4379°
perigee height: 434 km
apogee height: 438 km
right ascension of ascending node: 116.0908°
argument of perigee: 63.4365°
revolutions per day: 15.43502285
mean anomaly at epoch: 296.6543°
orbit number at epoch: 42660

The dashed part of the orbit path shows where the satellite is in the earth's shadow,  

DLR